Regional Weather Roundup
Issued by NWS

Home | Current Version | Previous Version | Graphics & Text | Print | Product List | Glossary On
Versions: 1 2 3 4 5 6 7 8 9 10 11 12 13 14 15 16 17 18 19 20 21 22 23 24 25 26 27 28 29 30 31 32 33 34 35 36 37 38 39 40 41 42 43 44 45 46 47 48 49 50
000
ASUS43 KBIS 010210
RWRND

NORTH DAKOTA REGIONAL WEATHER ROUNDUP
NATIONAL WEATHER SERVICE BISMARCK ND
800 PM CST SAT FEB 28 2015

NOTE: "FAIR" INDICATES FEW OR NO CLOUDS BELOW 12,000 FEET WITH NO
SIGNIFICANT WEATHER AND/OR OBSTRUCTIONS TO VISIBILITY.


NDZ001>003-009>011-017-010300-
NORTHWEST NORTH DAKOTA

CITY           SKY/WX    TMP DP  RH WIND       PRES   REMARKS
WILLISTON      CLEAR      1  -4  79 W3        30.15R
MINOT          CLEAR      4  -3  73 SW7       30.14S WCI  -8
MINOT AFB      CLEAR     -1  -5  84 W6        30.14S WCI -13
$$

NDZ018>021-031>035-040>046-010300-
SOUTHWEST NORTH DAKOTA

CITY           SKY/WX    TMP DP  RH WIND       PRES   REMARKS
BISMARCK       CLOUDY    14   4  64 NW12      30.20R WCI   0
DICKINSON      CLEAR      7   0  73 NW8       30.11R WCI  -6
GARRISON         N/A      4  -1  80 W5        30.16R WCI  -5
HETTINGER ARPT PTCLDY     8   1  73 W6        30.14R WCI  -2
$$

NDZ004>008-012>016-024-026-027-054-010300-
NORTHEAST NORTH DAKOTA

CITY           SKY/WX    TMP DP  RH WIND       PRES   REMARKS
GRAND FORKS    PTCLDY    12   5  73 W14       30.16R WCI  -3
GRND FRKS AFB  PTCLDY    10   2  72 NW10      30.16R WCI  -4
DEVILS LAKE    CLEAR      3  -6  66 W9        30.13S WCI -11
$$

NDZ022-023-025-028>030-036>039-047>053-010300-
SOUTHEAST NORTH DAKOTA

CITY           SKY/WX    TMP DP  RH WIND       PRES   REMARKS
FARGO          FLURRIES  20  13  74 W20       30.17R WCI   4
JAMESTOWN      CLEAR      6  -1  73 W9        30.16S WCI  -8
$$




USA.gov is the U.S. government's official web portal to all federal, state and local government web resources and services.